Location: Unspecified
(35.1111°N, 0.0000°E)
Time: 02:24:53
(UTC+00:00)

Vanguard 3 - All Passes

Search period start: 04 April 2026 00:00
Search period end: 14 April 2026 00:00
Orbit: 508 x 3205 km, 33.3° (Epoch: 28 March)

Date Brightness Start Highest point End Pass type
(mag) Time Alt. Az. Time Alt. Az. Time Alt. Az.
4 Apr - 02:16:02 10° SW 02:20:15 42° SSE 02:26:52 10° E visible
4 Apr - 04:25:22 10° W 04:31:20 80° S 04:42:11 10° E visible
4 Apr - 06:35:32 10° W 06:43:51 67° SSW 06:58:40 10° ESE daylight
4 Apr - 08:46:59 10° W 08:57:28 39° SSW 09:13:09 10° SSE daylight
4 Apr - 11:03:39 10° WSW 11:11:41 16° SW 11:20:54 10° S daylight
5 Apr - 00:56:29 10° SSW 00:59:20 19° SE 01:02:53 10° E visible
5 Apr - 03:04:42 10° WSW 03:09:27 67° SSE 03:17:32 10° E visible
5 Apr - 05:14:29 10° W 05:21:08 77° S 05:33:19 10° ESE visible
5 Apr - 07:25:00 10° W 07:33:59 52° SSW 07:49:06 10° SE daylight
5 Apr - 09:37:56 10° W 09:47:50 26° SSW 10:01:03 10° SSE daylight
6 Apr - 01:44:20 10° SW 01:48:10 39° SSE 01:53:43 10° E visible
6 Apr - 03:53:41 10° W 03:58:58 78° S 04:08:20 10° E visible
6 Apr - 06:03:42 10° W 06:11:01 64° SSW 06:24:14 10° ESE daylight
6 Apr - 08:14:55 10° W 08:24:12 36° SSW 08:38:28 10° SSE daylight
6 Apr - 10:31:45 10° WSW 10:38:15 14° SW 10:45:43 10° SSW daylight
7 Apr - 00:24:42 10° S 00:27:15 17° SSE 00:30:10 10° ESE night (unlit)
7 Apr - 02:33:02 10° WSW 02:37:20 65° SSE 02:44:09 10° E visible
7 Apr - 04:42:47 10° W 04:48:39 74° S 04:59:13 10° ESE visible
7 Apr - 06:53:07 10° W 07:01:01 48° SSW 07:14:31 10° SE daylight
7 Apr - 09:05:54 10° WSW 09:14:31 23° SSW 09:26:12 10° SSE daylight
8 Apr - 01:12:35 10° SW 01:16:08 37° SSE 01:20:49 10° E visible
8 Apr - 03:22:02 10° W 03:26:44 77° S 03:34:43 10° E visible
8 Apr - 05:31:57 10° W 05:38:23 60° SSW 05:49:56 10° ESE daylight
8 Apr - 07:43:00 10° W 07:51:08 33° SSW 08:03:45 10° SSE daylight
8 Apr - 10:00:32 10° SW 10:04:57 12° SW 10:09:54 10° SSW daylight
8 Apr - 23:52:44 10° SSW 23:55:11 17° SSE 23:57:46 10° ESE night (unlit)
9 Apr - 02:01:21 10° WSW 02:05:16 63° SSE 02:11:03 10° E visible
9 Apr - 04:11:07 10° W 04:16:18 71° S 04:25:22 10° ESE visible
9 Apr - 06:21:20 10° W 06:28:15 44° SSW 06:40:04 10° SE daylight
9 Apr - 08:34:07 10° WSW 08:41:24 20° SSW 08:51:13 10° S daylight
10 Apr - 00:40:44 10° SW 00:44:08 36° SSE 00:48:12 10° E night (unlit)
10 Apr - 02:50:22 10° W 02:54:37 75° S 03:01:22 10° E visible
10 Apr - 05:00:15 10° W 05:05:55 56° SSW 05:15:52 10° ESE visible
10 Apr - 07:11:15 10° W 07:18:16 29° SSW 07:29:05 10° SSE daylight
10 Apr - 23:20:33 10° SSW 23:23:07 17° SSE 23:25:39 10° ESE night (unlit)
11 Apr - 01:29:35 10° WSW 01:33:16 61° S 01:38:13 10° E visible
11 Apr - 03:39:27 10° W 03:44:04 68° S 03:51:47 10° ESE visible
11 Apr - 05:49:37 10° W 05:55:40 39° SSW 06:05:45 10° SE daylight
11 Apr - 08:02:37 10° WSW 08:08:28 17° SSW 08:16:09 10° S daylight
12 Apr - 00:08:45 10° SW 00:12:10 36° SSE 00:15:50 10° E night (unlit)
12 Apr - 02:18:40 10° W 02:22:34 73° S 02:28:17 10° E visible
12 Apr - 04:28:35 10° W 04:33:35 51° SSW 04:42:01 10° ESE visible
12 Apr - 06:39:38 10° WSW 06:45:36 25° SSW 06:54:30 10° SSE daylight
12 Apr - 22:48:06 10° SSW 22:51:03 19° SSE 22:53:45 10° ESE night (unlit)
13 Apr - 00:57:43 10° WSW 01:01:19 60° S 01:05:37 10° E night (unlit)
13 Apr - 03:07:46 10° W 03:11:57 64° S 03:18:27 10° ESE visible
13 Apr - 05:18:00 10° W 05:23:14 34° SSW 05:31:37 10° SE daylight
13 Apr - 07:31:31 10° SW 07:35:43 14° SSW 07:40:52 10° S daylight
13 Apr - 21:29:00 10° SSE 21:29:39 10° SSE 21:30:18 10° SSE night (unlit)
13 Apr - 23:36:34 10° SW 23:40:13 37° SSE 23:43:41 10° E night (unlit)
